| time (UTC) | temp F | wind direction | speed knots | gust knots | rain 1hr in | rain 24hr in | rain mn in | humidity % | barometer mb |
| 20260504184535 | 72 | 0 | 2.6 | 6.1 | 0.00 | 0.00 | 0.00 | 61 | 1013.8 |
| 20260504183943 | 74 | 270 | 2.6 | 6.1 | 0.00 | 0.00 | 0.00 | 56 | 1013.5 |
| 20260504183329 | 74 | 225 | 2.6 | 3.5 | 0.00 | 0.00 | 0.00 | 57 | 1013.8 |
| 20260504182741 | 74 | 248 | 1.7 | 2.6 | 0.00 | 0.00 | 0.00 | 57 | 1013.5 |
| 20260504182142 | 75 | 135 | 1.7 | 5.2 | 0.00 | 0.00 | 0.00 | 55 | 1013.5 |
| 20260504181512 | 76 | 270 | 3.5 | 5.2 | 0.00 | 0.00 | 0.00 | 55 | 1013.5 |
| 20260504180923 | 77 | 248 | 3.5 | 5.2 | 0.00 | 0.00 | 0.00 | 55 | 1013.5 |
| 20260504180320 | 76 | 225 | 0.9 | 1.7 | 0.00 | 0.00 | 0.00 | 54 | 1013.5 |
| 20260504175748 | 76 | 225 | 3.5 | 3.5 | 0.00 | 0.00 | 0.00 | 55 | 1013.5 |
| 20260504174534 | 75 | 315 | 7.8 | 7.8 | 0.00 | 0.00 | 0.00 | 54 | 1013.8 |
| 20260504173931 | 75 | 113 | 2.6 | 5.2 | 0.00 | 0.00 | 0.00 | 55 | 1013.8 |
| 20260504172713 | 74 | 338 | 3.5 | 3.5 | 0.00 | 0.00 | 0.00 | 55 | 1014.2 |
| 20260504172134 | 74 | 225 | 5.2 | 5.2 | 0.00 | 0.00 | 0.00 | 56 | 1014.2 |
| 20260504171554 | 72 | 270 | 3.5 | 7.0 | 0.00 | 0.00 | 0.00 | 58 | 1014.2 |
| 20260504170919 | 72 | 158 | 3.5 | 6.1 | 0.00 | 0.00 | 0.00 | 60 | 1014.5 |
| 20260504170335 | 72 | 248 | 1.7 | 4.3 | 0.00 | 0.00 | 0.00 | 63 | 1014.5 |
| 20260504160347 | 65 | 0 | 2.6 | 2.6 | 0.00 | 0.00 | 0.00 | 71 | 1016.5 |
| 20260504141236 | 61 | 293 | 0.0 | 2.6 | 0.00 | 0.00 | 0.00 | 71 | 1016.9 |
| 20260504140653 | 61 | 135 | 0.0 | 2.6 | 0.00 | 0.00 | 0.00 | 69 | 1016.9 |
| 20260504130633 | 53 | 248 | 0.0 | 2.6 | 0.00 | 0.00 | 0.00 | 83 | 1016.9 |
| 20260504110627 | 42 | 225 | 0.0 | 0.0 | 0.00 | 0.00 | 0.00 | 99 | 1016.2 |
| 20260504081814 | 43 | 203 | 0.0 | 0.0 | 0.00 | 0.00 | 0.00 | 99 | 1017.2 |
| 20260504081216 | 42 | 203 | 0.0 | 0.0 | 0.00 | 0.00 | 0.00 | 99 | 1017.2 |
| 20260504080626 | 42 | 180 | 0.0 | 0.0 | 0.00 | 0.00 | 0.00 | 99 | 1017.2 |
| 20260504045417 | 48 | 270 | 0.0 | 0.0 | 0.00 | 0.00 | 0.00 | 90 | 1018.6 |
| 20260504044831 | 48 | 225 | 0.0 | 0.0 | 0.00 | 0.00 | 0.00 | 88 | 1018.2 |
| 20260504044221 | 48 | 248 | 0.0 | 0.0 | 0.00 | 0.00 | 0.00 | 89 | 1018.2 |
| 20260504043642 | 48 | 248 | 0.0 | 0.0 | 0.00 | 0.00 | 0.00 | 89 | 1018.2 |
| 20260504043048 | 48 | 270 | 0.0 | 0.0 | 0.00 | 0.00 | 0.00 | 87 | 1018.6 |
| 20260504042431 | 48 | 270 | 0.0 | 0.0 | 0.00 | 0.00 | 0.00 | 86 | 1018.2 |
| 20260504041228 | 48 | 293 | 0.0 | 0.0 | 0.00 | 0.00 | 0.00 | 84 | 1018.2 |
| 20260504040644 | 48 | 270 | 0.0 | 0.0 | 0.00 | 0.00 | 0.00 | 85 | 1018.2 |
| 20260504040029 | 49 | 338 | 0.0 | 0.0 | 0.00 | 0.00 | 0.00 | 84 | 1018.2 |
| 20260504035428 | 49 | 0 | 0.0 | 0.0 | 0.00 | 0.00 | 0.00 | 82 | 1018.2 |
| 20260504034214 | 49 | 293 | 0.0 | 0.0 | 0.00 | 0.00 | 0.00 | 80 | 1018.2 |
| 20260504033612 | 49 | 270 | 0.0 | 0.0 | 0.00 | 0.00 | 0.00 | 81 | 1018.2 |
| 20260504033036 | 49 | 270 | 0.0 | 0.0 | 0.00 | 0.00 | 0.00 | 82 | 1018.2 |
| 20260504031244 | 49 | 225 | 0.0 | 0.0 | 0.00 | 0.00 | 0.00 | 79 | 1018.2 |
| 20260504030018 | 49 | 293 | 0.0 | 0.0 | 0.00 | 0.00 | 0.00 | 79 | 1018.2 |
| 20260504025413 | 49 | 248 | 0.0 | 0.0 | 0.00 | 0.00 | 0.00 | 80 | 1018.2 |
| 20260504024824 | 49 | 270 | 0.0 | 0.0 | 0.00 | 0.00 | 0.00 | 80 | 1018.2 |
| 20260504024220 | 49 | 203 | 0.0 | 0.0 | 0.00 | 0.00 | 0.00 | 78 | 1017.9 |
| 20260504023633 | 49 | 225 | 0.0 | 0.0 | 0.00 | 0.00 | 0.00 | 78 | 1017.9 |
| 20260504023027 | 49 | 203 | 0.0 | 0.0 | 0.00 | 0.00 | 0.00 | 80 | 1018.2 |
| 20260504022437 | 49 | 203 | 0.0 | 0.0 | 0.00 | 0.00 | 0.00 | 78 | 1017.6 |
| 20260504021834 | 49 | 203 | 0.0 | 0.0 | 0.00 | 0.00 | 0.00 | 78 | 1017.6 |
| 20260504020620 | 49 | 225 | 0.0 | 0.0 | 0.00 | 0.00 | 0.00 | 78 | 1017.9 |
| 20260504020020 | 49 | 180 | 0.0 | 0.0 | 0.00 | 0.00 | 0.00 | 78 | 1017.9 |
| 20260504015443 | 49 | 203 | 0.0 | 0.0 | 0.00 | 0.00 | 0.00 | 78 | 1017.9 |
| 20260504014826 | 49 | 248 | 0.0 | 0.0 | 0.00 | 0.00 | 0.00 | 77 | 1017.9 |
| 20260504014244 | 49 | 225 | 0.0 | 0.0 | 0.00 | 0.00 | 0.00 | 77 | 1017.9 |
| 20260504013650 | 49 | 203 | 0.0 | 0.0 | 0.00 | 0.00 | 0.00 | 77 | 1017.9 |
| 20260504012412 | 50 | 225 | 0.0 | 0.0 | 0.00 | 0.00 | 0.00 | 74 | 1017.6 |
| 20260504011837 | 50 | 180 | 0.0 | 0.0 | 0.00 | 0.00 | 0.00 | 72 | 1017.6 |
| 20260504011214 | 50 | 203 | 0.0 | 0.0 | 0.00 | 0.00 | 0.00 | 71 | 1017.6 |
| 20260504010635 | 51 | 203 | 0.0 | 0.0 | 0.00 | 0.00 | 0.00 | 69 | 1017.9 |
| 20260504010049 | 52 | 203 | 0.0 | 0.0 | 0.00 | 0.00 | 0.00 | 68 | 1017.6 |
| 20260504005438 | 52 | 225 | 0.9 | 1.7 | 0.00 | 0.00 | 0.00 | 68 | 1017.6 |
| 20260504004247 | 53 | 203 | 0.0 | 0.0 | 0.00 | 0.00 | 0.00 | 64 | 1017.6 |
| 20260504003614 | 53 | 203 | 0.0 | 0.0 | 0.00 | 0.00 | 0.00 | 64 | 1017.6 |
| 20260504003040 | 54 | 248 | 0.0 | 0.0 | 0.00 | 0.00 | 0.00 | 61 | 1017.6 |
| 20260504002436 | 56 | 225 | 0.0 | 0.0 | 0.00 | 0.00 | 0.00 | 58 | 1017.2 |
| 20260504001818 | 56 | 203 | 0.0 | 0.0 | 0.00 | 0.00 | 0.00 | 58 | 1017.2 |
| 20260504001219 | 57 | 203 | 0.0 | 0.0 | 0.00 | 0.00 | 0.00 | 57 | 1017.2 |
| 20260504000654 | 58 | 203 | 0.0 | 0.0 | 0.00 | 0.00 | 0.00 | 54 | 1017.2 |
| 20260504000042 | 60 | 203 | 0.0 | 0.0 | 0.00 | 0.00 | 0.00 | 51 | 1017.2 |
| 20260503235412 | 60 | 203 | 0.0 | 0.0 | 0.00 | 0.00 | 0.00 | 52 | 1017.6 |
| 20260503234815 | 62 | 225 | 0.0 | 0.0 | 0.00 | 0.00 | 0.00 | 46 | 1017.6 |
| 20260503234236 | 64 | 45 | 0.0 | 0.0 | 0.00 | 0.00 | 0.00 | 45 | 1017.2 |
| 20260503233627 | 66 | 45 | 0.0 | 1.7 | 0.00 | 0.00 | 0.00 | 39 | 1017.6 |
| 20260503233035 | 66 | 45 | 0.0 | 0.0 | 0.00 | 0.00 | 0.00 | 39 | 1017.6 |
| 20260503232447 | 68 | 45 | 0.0 | 2.6 | 0.00 | 0.00 | 0.00 | 37 | 1017.6 |
| 20260503231819 | 66 | 45 | 1.7 | 2.6 | 0.00 | 0.00 | 0.00 | 37 | 1017.6 |
| 20260503231252 | 68 | 315 | 0.0 | 1.7 | 0.00 | 0.00 | 0.00 | 37 | 1017.6 |
| 20260503230636 | 68 | 270 | 0.9 | 6.1 | 0.00 | 0.00 | 0.00 | 36 | 1017.6 |
| 20260503230041 | 69 | 0 | 2.6 | 2.6 | 0.00 | 0.00 | 0.00 | 36 | 1017.6 |
| 20260503224223 | 68 | 45 | 1.7 | 2.6 | 0.00 | 0.00 | 0.00 | 36 | 1017.9 |
| 20260503223614 | 68 | 158 | 2.6 | 5.2 | 0.00 | 0.00 | 0.00 | 36 | 1017.9 |
| 20260503223014 | 68 | 68 | 1.7 | 1.7 | 0.00 | 0.00 | 0.00 | 37 | 1017.6 |
| 20260503222422 | 67 | 23 | 3.5 | 7.0 | 0.00 | 0.00 | 0.00 | 36 | 1017.9 |
| 20260503221820 | 68 | 23 | 7.0 | 8.7 | 0.00 | 0.00 | 0.00 | 36 | 1017.9 |
| 20260503221224 | 68 | 23 | 2.6 | 2.6 | 0.00 | 0.00 | 0.00 | 37 | 1017.9 |
| 20260503220654 | 66 | 45 | 5.2 | 7.0 | 0.00 | 0.00 | 0.00 | 37 | 1017.9 |
| 20260503220044 | 66 | 0 | 3.5 | 4.3 | 0.00 | 0.00 | 0.00 | 37 | 1017.9 |
| 20260503215439 | 66 | 203 | 4.3 | 5.2 | 0.00 | 0.00 | 0.00 | 37 | 1017.9 |
| 20260503214810 | 66 | 203 | 4.3 | 4.3 | 0.00 | 0.00 | 0.00 | 37 | 1017.9 |
| 20260503214224 | 67 | 338 | 1.7 | 3.5 | 0.00 | 0.00 | 0.00 | 36 | 1017.9 |
| 20260503213647 | 68 | 68 | 3.5 | 4.3 | 0.00 | 0.00 | 0.00 | 36 | 1017.9 |
| 20260503212440 | 67 | 315 | 3.5 | 6.1 | 0.00 | 0.00 | 0.00 | 37 | 1017.9 |
| 20260503211827 | 68 | 23 | 6.1 | 6.1 | 0.00 | 0.00 | 0.00 | 36 | 1017.9 |
| 20260503211227 | 67 | 113 | 4.3 | 4.3 | 0.00 | 0.00 | 0.00 | 37 | 1018.2 |
| 20260503210647 | 66 | 158 | 0.0 | 3.5 | 0.00 | 0.00 | 0.00 | 38 | 1018.2 |
| 20260503210017 | 67 | 68 | 1.7 | 1.7 | 0.00 | 0.00 | 0.00 | 37 | 1018.2 |
| 20260503205430 | 66 | 180 | 1.7 | 8.7 | 0.00 | 0.00 | 0.00 | 37 | 1018.2 |
| 20260503204242 | 67 | 248 | 1.7 | 4.3 | 0.00 | 0.00 | 0.00 | 36 | 1018.6 |
| 20260503203038 | 68 | 45 | 4.3 | 5.2 | 0.00 | 0.00 | 0.00 | 36 | 1018.6 |
| 20260503202422 | 66 | 225 | 0.9 | 5.2 | 0.00 | 0.00 | 0.00 | 35 | 1018.9 |
| 20260503201816 | 66 | 225 | 3.5 | 3.5 | 0.00 | 0.00 | 0.00 | 37 | 1018.9 |
| 20260503201234 | 67 | 338 | 5.2 | 6.1 | 0.00 | 0.00 | 0.00 | 36 | 1019.3 |
| 20260503200625 | 66 | 45 | 3.5 | 3.5 | 0.00 | 0.00 | 0.00 | 36 | 1019.3 |
| 20260503200026 | 66 | 270 | 2.6 | 2.6 | 0.00 | 0.00 | 0.00 | 38 | 1019.3 |
| 20260503195409 | 66 | 225 | 3.5 | 7.0 | 0.00 | 0.00 | 0.00 | 38 | 1019.6 |
| 20260503194821 | 68 | 315 | 6.1 | 6.1 | 0.00 | 0.00 | 0.00 | 36 | 1019.6 |
| 20260503194241 | 67 | 203 | 2.6 | 3.5 | 0.00 | 0.00 | 0.00 | 36 | 1019.6 |
| 20260503193621 | 67 | 248 | 2.6 | 5.2 | 0.00 | 0.00 | 0.00 | 36 | 1019.6 |
| 20260503193043 | 69 | 0 | 3.5 | 3.5 | 0.00 | 0.00 | 0.00 | 35 | 1019.9 |
| 20260503192436 | 67 | 23 | 3.5 | 3.5 | 0.00 | 0.00 | 0.00 | 38 | 1019.9 |
| 20260503191842 | 66 | 180 | 3.5 | 5.2 | 0.00 | 0.00 | 0.00 | 37 | 1020.3 |
| 20260503191249 | 66 | 180 | 2.6 | 5.2 | 0.00 | 0.00 | 0.00 | 36 | 1020.3 |
| 20260503190636 | 67 | 0 | 1.7 | 4.3 | 0.00 | 0.00 | 0.00 | 38 | 1020.3 |
| 20260503190052 | 68 | 225 | 3.5 | 3.5 | 0.00 | 0.00 | 0.00 | 36 | 1020.3 |
| 20260503185423 | 71 | 45 | 1.7 | 5.2 | 0.00 | 0.00 | 0.00 | 32 | 1020.6 |
| 20260503184846 | 71 | 270 | 0.9 | 3.5 | 0.00 | 0.00 | 0.00 | 36 | 1020.6 |